User: anonymous   Login
Location: Long Point Provincial Park
(42.5794°N, 80.4103°W)
Time: 13:29:57
(UTC-04:00)
Language:

Iridium 19 - Orbit

View from above orbital plane
View from above orbital plane
View from above satellite
View from above satellite

Ground track
Ground track

The orbit data is extracted from the following two-line orbital elements,

1 24965U 97056A   18097.22249121  .15690194 -15286-5  28846-3 0  9995
2 24965  86.3570 184.0870 0015366  83.3282 277.2194 16.46396628 76277
Epoch (UTC): 07 April 2018 05:20:23
Eccentricity: 0.0015366
inclination: 86.3570°
perigee height: 139 km
apogee height: 159 km
right ascension of ascending node: 184.0870°
argument of perigee: 83.3282°
revolutions per day: 16.46396628
mean anomaly at epoch: 277.2194°
orbit number at epoch: 7627

The dashed part of the orbit path shows where the satellite is in the earth's shadow,  

DLR